Location: Bednik
(45.3500°N, 16.3833°E)
Time: 00:06:40
(UTC+00:00)

COSMOS 2406 - Pass Details

Date: 08 August 2020
Orbit: 845 x 862 km, 71.0° (Epoch: 23 September)

Event Time Altitude Azimuth Distance (km) Brightness Sun altitude
Rises 19:46:43 0° 216° (SW) 3,425 6.3 -14.8°
Reaches altitude 10° 19:49:13 10° 220° (SW) 2,490 5.6 -15.1°
Maximum altitude 19:54:51 59° 299° (WNW) 983 3.8 -15.9°
Drops below altitude 10° 20:00:32 10° 20° (NNE) 2,496 6.0 -16.6°
Sets 20:03:02 0° 24° (NNE) 3,433 6.7 -16.9°
